QPF
0.00 0.00 0.00 0.00 0.00 0.00 0.00 0.00 0.00 0.00 0.00 0.00 0.00 0.00 0.00 0.00 0.00 0.00 0.00 0.00 0.00 0.00 0.00 0.00 0.00 0.00 0.00 0.00 0.00 0.00 0.00 0.00 0.00 0.00 0.00 0.00 0.00 0.00 0.00 0.00 0.00 0.00 0.00 0.00 0.00
0.00 0.00 0.00 0.00 0.00 0.00 0.00 0.00 0.00 0.00 0.00 0.00 0.00 0.00 0.00 0.00 0.00 0.00 0.00 0.00 0.00 0.00 0.00 0.00 0.00 0.00 0.00 0.00 0.00 0.00 0.00 0.00 0.00 0.00 0.00 0.00 0.00 0.00 0.00 0.00 0.00 0.00 0.00 0.00 0.00
0.00 0.00 0.00 0.00 0.00 0.00 0.00 0.00 0.00 0.00 0.00 0.00 0.00 0.00 0.00 0.00 0.00 0.00 0.00 0.00 0.00 0.00 0.00 0.00 0.00 0.00 0.00 0.00 0.00 0.00 0.00 0.00 0.00 0.00 0.00 0.00 0.00 0.00 0.00 0.00 0.00 0.00 0.00 0.00 0.00
0.00 0.00 0.00 0.00 0.00 0.00 0.00 0.00 0.00 0.00 0.00 0.00 0.00 0.00 0.00 0.00 0.00 0.00 0.00 0.00 0.00 0.00 0.00 0.00 0.00 0.00 0.00 0.00 0.00 0.00 0.00 0.00 0.00 0.00 0.00 0.00 0.00 0.00 0.00 0.00 0.00 0.00 0.00 0.00 0.00
0.00 0.00 0.00 0.00 0.00 0.00 0.00 0.00 0.00 0.00 0.00 0.00 0.00 0.00 0.00 0.00 0.00 0.00 0.00 0.00 0.00 0.00 0.00 0.00 0.00 0.00 0.00 0.00 0.00 0.00 0.00 0.00 0.00 0.00 0.00 0.00 0.00 0.00 0.00 0.00 0.00 0.00 0.00 0.00 0.00
0.00 0.00 0.00 0.00 0.00 0.00 0.00 0.00 0.00 0.00 0.00 0.00 0.00 0.00 0.00 0.00 0.00 0.00 0.00 0.00 0.00 0.00 0.00 0.00 0.00 0.00 0.00 0.00 0.00 0.00 0.00 0.00 0.00 0.00 0.00 0.00 0.00 0.00 0.00 0.00 0.00 0.00 0.00 0.00 0.00
0.00 0.00 0.00 0.00 0.00 0.00 0.00 0.00 0.00 0.00 0.00 0.00 0.00 0.00 0.00 0.00 0.00 0.00 0.00 0.00 0.00 0.00 0.00 0.00 0.00 0.00 0.00 0.00 0.00 0.00 0.00 0.00 0.00 0.00 0.00 0.00 0.00 0.00 0.01 0.00 0.00 0.00 0.00 0.00 0.00
0.00 0.00 0.00 0.00 0.00 0.00 0.00 0.00 0.00 0.00 0.00 0.00 0.00 0.00 0.00 0.00 0.00 0.00 0.00 0.00 0.00 0.00 0.00 0.00 0.00 0.00 0.00 0.00 0.00 0.00 0.00 0.00 0.00 0.00 0.00 0.00 0.00 0.00 0.00 0.00 0.01 0.00 0.00 0.00 0.00
0.00 0.00 0.00 0.00 0.00 0.00 0.00 0.00 0.00 0.00 0.00 0.00 0.00 0.00 0.00 0.00 0.00 0.00 0.00 0.00 0.00 0.00 0.00 0.00 0.00 0.00 0.00 0.00 0.00 0.00 0.00 0.00 0.00 0.00 0.00 0.00 0.00 0.00 0.00 0.00 0.00 0.00 0.00 0.00 0.00
0.00 0.00 0.00 0.00 0.00 0.00 0.00 0.00 0.00 0.00 0.00 0.00 0.00 0.00 0.00 0.00 0.00 0.00 0.00 0.00 0.00 0.00 0.00 0.00 0.00 0.00 0.00 0.00 0.00 0.00 0.00 0.00 0.00 0.00 0.00 0.00 0.00 0.00 0.00 0.00 0.00 0.00 0.00 0.00 0.00
0.00 0.00 0.00 0.00 0.00 0.00 0.00 0.00 0.00 0.00 0.00 0.00 0.00 0.00 0.00 0.00 0.00 0.00 0.00 0.00 0.00 0.00 0.00 0.00 0.00 0.00 0.00 0.00 0.00 0.00 0.00 0.00 0.00 0.00 0.00 0.00 0.00 0.00 0.00 0.00 0.00 0.00 0.00 0.00 0.00
0.00 0.00 0.00 0.00 0.00 0.00 0.00 0.00 0.00 0.00 0.00 0.00 0.00 0.00 0.00 0.00 0.00 0.00 0.00 0.00 0.00 0.00 0.00 0.00 0.00 0.00 0.00 0.00 0.00 0.00 0.00 0.00 0.00 0.00 0.00 0.00 0.00 0.00 0.00 0.00 0.00 0.00 0.00 0.00 0.00
0.00 0.00 0.00 0.00 0.00 0.00 0.00 0.00 0.00 0.00 0.00 0.00 0.00 0.00 0.00 0.00 0.00 0.00 0.00 0.00 0.00 0.00 0.00 0.00 0.00 0.00 0.00 0.00 0.00 0.00 0.00 0.00 0.00 0.00 0.00 0.00 0.00 0.00 0.00 0.00 0.01 0.01 0.00 0.00 0.00
0.00 0.00 0.00 0.00 0.00 0.00 0.00 0.00 0.00 0.00 0.00 0.00 0.00 0.00 0.00 0.00 0.00 0.00 0.00 0.00 0.00 0.00 0.00 0.00 0.00 0.00 0.00 0.00 0.00 0.00 0.00 0.00 0.00 0.00 0.00 0.00 0.00 0.00 0.00 0.00 0.00 0.00 0.00 0.00 0.00
0.00 0.00 0.00 0.00 0.00 0.00 0.00 0.00 0.00 0.00 0.00 0.00 0.00 0.00 0.00 0.00 0.00 0.00 0.00 0.00 0.00 0.00 0.00 0.00 0.00 0.00 0.00 0.00 0.00 0.00 0.00 0.00 0.00 0.00 0.00 0.00 0.00 0.00 0.00 0.00 0.00 0.00 0.01 0.01 0.02
0.00 0.00 0.00 0.00 0.00 0.00 0.00 0.00 0.00 0.00 0.00 0.00 0.00 0.00 0.00 0.00 0.00 0.00 0.00 0.00 0.00 0.00 0.00 0.00 0.00 0.00 0.00 0.00 0.00 0.00 0.00 0.00 0.00 0.00 0.00 0.00 0.00 0.00 0.00 0.00 0.00 0.00 0.00 0.02 0.02
0.00 0.00 0.00 0.00 0.00 0.00 0.00 0.00 0.00 0.00 0.00 0.00 0.00 0.00 0.00 0.00 0.00 0.00 0.00 0.00 0.00 0.00 0.00 0.00 0.00 0.00 0.00 0.00 0.00 0.00 0.00 0.00 0.00 0.00 0.00 0.00 0.00 0.00 0.00 0.00 0.00 0.00 0.00 0.00 0.00
0.00 0.00 0.00 0.00 0.00 0.00 0.00 0.00 0.00 0.00 0.00 0.00 0.00 0.00 0.00 0.00 0.00 0.00 0.00 0.00 0.00 0.00 0.00 0.00 0.00 0.00 0.00 0.00 0.00 0.00 0.00 0.00 0.00 0.00 0.00 0.00 0.00 0.00 0.00 0.00 0.00 0.00 0.00 0.00 0.00
0.00 0.00 0.00 0.00 0.00 0.00 0.00 0.00 0.00 0.00 0.00 0.00 0.00 0.00 0.00 0.00 0.00 0.00 0.00 0.00 0.00 0.00 0.00 0.00 0.00 0.00 0.00 0.00 0.00 0.00 0.00 0.00 0.00 0.00 0.00 0.00 0.00 0.00 0.00 0.00 0.00 0.00 0.00 0.00 0.00
0.00 0.00 0.00 0.00 0.00 0.00 0.00 0.00 0.00 0.00 0.00 0.00 0.00 0.00 0.00 0.00 0.00 0.00 0.00 0.00 0.00 0.00 0.00 0.00 0.00 0.00 0.00 0.00 0.00 0.00 0.00 0.00 0.00 0.00 0.00 0.00 0.00 0.00 0.00 0.00 0.00 0.00 0.00 0.00 0.00
0.00 0.00 0.00 0.00 0.00 0.00 0.00 0.00 0.00 0.00 0.00 0.00 0.00 0.00 0.00 0.00 0.00 0.00 0.00 0.00 0.00 0.00 0.00 0.00 0.00 0.00 0.00 0.00 0.00 0.00 0.00 0.00 0.00 0.00 0.00 0.00 0.00 0.00 0.00 0.00 0.00 0.00 0.00 0.01 0.01
0.00 0.00 0.00 0.00 0.00 0.00 0.00 0.00 0.00 0.00 0.00 0.00 0.00 0.00 0.00 0.00 0.00 0.00 0.00 0.00 0.00 0.00 0.00 0.00 0.00 0.00 0.00 0.00 0.00 0.00 0.00 0.00 0.00 0.00 0.00 0.00 0.00 0.00 0.00 0.00 0.00 0.00 0.00 0.01 0.02
0.00 0.00 0.00 0.00 0.00 0.00 0.00 0.00 0.00 0.00 0.00 0.00 0.00 0.00 0.00 0.00 0.00 0.00 0.00 0.00 0.00 0.00 0.00 0.00 0.00 0.00 0.00 0.00 0.00 0.00 0.00 0.00 0.00 0.00 0.00 0.00 0.00 0.00 0.00 0.00 0.00 0.00 0.01 0.01 0.01
0.00 0.00 0.00 0.00 0.00 0.00 0.00 0.00 0.00 0.00 0.00 0.00 0.00 0.00 0.00 0.00 0.00 0.00 0.01 0.00 0.00 0.00 0.00 0.00 0.00 0.00 0.00 0.00 0.00 0.00 0.00 0.00 0.00 0.00 0.00 0.00 0.00 0.00 0.00 0.00 0.00 0.00 0.00 0.00 0.00
0.00 0.00 0.00 0.00 0.00 0.00 0.00 0.00 0.00 0.00 0.00 0.00 0.00 0.00 0.00 0.00 0.00 0.01 0.01 0.00 0.00 0.00 0.00 0.01 0.01 0.00 0.00 0.00 0.00 0.00 0.00 0.00 0.00 0.00 0.00 0.00 0.00 0.00 0.00 0.00 0.00 0.00 0.00 0.00 0.00
0.00 0.00 0.00 0.00 0.00 0.00 0.00 0.00 0.00 0.00 0.00 0.00 0.00 0.00 0.00 0.00 0.00 0.00 0.00 0.00 0.00 0.00 0.01 0.00 0.00 0.00 0.00 0.00 0.00 0.00 0.00 0.00 0.00 0.00 0.00 0.00 0.00 0.00 0.00 0.00 0.00 0.00 0.00 0.00 0.00
0.00 0.00 0.00 0.00 0.00 0.00 0.00 0.00 0.00 0.00 0.00 0.00 0.00 0.00 0.00 0.00 0.00 0.00 0.00 0.00 0.00 0.00 0.00 0.00 0.00 0.00 0.00 0.00 0.00 0.00 0.00 0.00 0.00 0.00 0.00 0.00 0.00 0.00 0.00 0.00 0.00 0.00 0.00 0.00 0.00
MSLP
1016.93 1016.76 1016.48 1016.25 1016.05 1015.91 1015.78 1015.64 1015.40 1015.26 1015.13 1014.98 1014.91 1014.82 1014.76 1014.55 1014.21 1014.02 1012.65 1011.04 1011.44 1012.01 1012.22 1012.76 1012.80 1012.75 1012.66 1012.46 1012.65 1012.83 1012.62 1012.70 1012.95 1013.25 1013.67 1014.30 1014.58 1015.38 1015.77 1016.03 1016.45 1017.00 1017.18 1017.67 1018.67
1016.93 1016.77 1016.53 1016.26 1016.04 1015.92 1015.76 1015.64 1015.41 1015.19 1014.99 1014.88 1014.75 1014.71 1014.66 1014.49 1013.82 1012.74 1010.72 1010.86 1011.36 1011.87 1012.13 1012.17 1012.33 1012.47 1012.33 1012.40 1012.61 1012.54 1012.59 1012.50 1012.76 1013.02 1013.27 1013.91 1014.30 1015.04 1015.59 1015.98 1016.50 1017.16 1017.68 1018.00 1018.55
1017.00 1016.71 1016.49 1016.29 1015.99 1015.89 1015.78 1015.56 1015.34 1015.04 1014.86 1014.73 1014.65 1014.61 1014.49 1014.30 1013.17 1010.83 1010.21 1010.93 1011.41 1011.66 1011.70 1011.99 1012.01 1012.01 1011.96 1012.26 1012.57 1012.70 1012.54 1012.91 1012.90 1013.11 1013.43 1013.66 1014.28 1014.87 1015.17 1015.56 1015.76 1016.18 1017.33 1018.02 1018.41
1016.96 1016.67 1016.40 1016.22 1015.97 1015.83 1015.68 1015.51 1015.31 1014.97 1014.80 1014.69 1014.60 1014.53 1014.35 1013.91 1012.03 1010.17 1010.31 1010.82 1011.58 1011.63 1011.63 1011.88 1011.93 1011.78 1011.73 1011.89 1012.45 1012.49 1012.86 1013.12 1013.25 1013.21 1013.36 1013.71 1014.06 1014.74 1015.05 1015.24 1015.98 1016.23 1017.02 1017.64 1018.09
1016.93 1016.64 1016.35 1016.13 1015.85 1015.67 1015.53 1015.40 1015.30 1014.99 1014.76 1014.58 1014.45 1014.42 1014.28 1013.04 1010.86 1010.06 1010.42 1011.25 1011.96 1011.78 1011.53 1011.64 1011.63 1011.73 1011.52 1012.01 1012.42 1012.50 1012.94 1013.21 1013.47 1013.38 1013.36 1013.85 1014.12 1014.47 1014.93 1015.73 1016.18 1016.56 1017.15 1017.45 1017.91
1016.86 1016.59 1016.25 1015.97 1015.75 1015.49 1015.38 1015.21 1015.04 1014.82 1014.57 1014.40 1014.30 1014.32 1013.66 1011.72 1010.25 1010.14 1010.50 1011.30 1011.57 1011.56 1011.53 1011.53 1011.32 1011.68 1011.88 1012.22 1012.53 1012.86 1012.90 1012.98 1013.24 1013.31 1013.64 1013.88 1014.51 1015.05 1015.12 1015.98 1016.44 1016.70 1016.78 1017.31 1017.75
1016.76 1016.48 1016.21 1015.90 1015.61 1015.30 1015.19 1015.04 1014.88 1014.61 1014.36 1014.21 1014.13 1013.86 1012.89 1010.93 1010.10 1010.45 1010.69 1011.09 1011.39 1011.22 1011.22 1011.42 1011.38 1011.59 1012.09 1012.42 1012.91 1012.95 1012.90 1012.74 1013.04 1013.31 1013.51 1013.93 1014.23 1013.96 1014.79 1015.80 1016.34 1016.49 1016.81 1017.31 1017.65
1016.68 1016.42 1016.17 1015.87 1015.52 1015.19 1014.96 1014.74 1014.55 1014.30 1014.12 1013.94 1013.97 1013.52 1011.79 1010.57 1010.53 1010.68 1010.64 1010.89 1011.36 1011.37 1011.17 1011.28 1011.42 1011.88 1012.30 1012.73 1012.76 1012.70 1012.85 1012.50 1012.71 1012.91 1013.33 1013.52 1012.16 1012.86 1014.51 1015.34 1016.00 1016.28 1016.74 1017.41 1017.70
1016.62 1016.37 1016.13 1015.87 1015.45 1015.07 1014.74 1014.40 1014.01 1013.83 1013.85 1013.82 1013.75 1012.80 1011.19 1011.17 1010.55 1010.17 1010.32 1010.33 1011.03 1011.31 1011.30 1011.43 1011.49 1012.03 1012.48 1012.25 1012.36 1012.52 1011.88 1012.11 1012.25 1012.44 1012.76 1013.20 1012.18 1013.49 1014.73 1015.19 1015.48 1016.07 1016.40 1016.94 1017.30
1016.54 1016.30 1016.07 1015.76 1015.37 1015.02 1014.54 1014.22 1013.88 1013.75 1013.78 1013.59 1012.86 1012.30 1010.71 1009.98 1009.50 1009.72 1010.21 1010.20 1010.40 1011.07 1011.32 1011.40 1011.65 1011.78 1012.12 1011.88 1011.17 1011.26 1011.54 1011.83 1011.84 1012.34 1012.94 1012.93 1012.28 1013.76 1014.64 1015.19 1015.37 1015.93 1016.24 1016.63 1016.82
1016.41 1016.14 1015.94 1015.60 1015.32 1015.12 1014.30 1013.93 1014.05 1013.48 1012.83 1011.63 1011.05 1010.42 1009.51 1009.09 1009.18 1009.36 1009.44 1009.71 1009.91 1010.44 1010.55 1011.20 1011.03 1010.53 1010.29 1010.74 1010.58 1010.88 1011.16 1011.27 1011.40 1011.88 1012.55 1012.45 1012.48 1013.06 1014.24 1014.83 1015.18 1015.61 1015.85 1016.14 1016.21
1016.30 1016.02 1015.75 1015.44 1015.26 1015.18 1015.05 1013.40 1012.07 1011.77 1011.29 1010.65 1010.49 1009.85 1009.32 1008.93 1008.81 1008.96 1009.31 1009.38 1009.66 1009.73 1010.48 1011.10 1010.27 1009.74 1010.10 1010.13 1010.38 1010.43 1010.60 1010.62 1011.34 1011.92 1012.35 1012.43 1012.13 1012.59 1013.60 1014.12 1014.62 1014.96 1015.23 1015.36 1015.63
1016.17 1015.88 1015.56 1015.26 1015.09 1015.01 1013.86 1012.22 1011.52 1011.22 1010.96 1010.17 1009.77 1009.23 1008.72 1008.73 1008.31 1008.24 1008.63 1008.63 1008.89 1009.36 1009.73 1009.81 1009.36 1009.47 1009.56 1009.48 1009.68 1009.71 1010.00 1010.14 1010.82 1011.83 1012.52 1012.63 1012.07 1012.27 1013.11 1013.66 1014.06 1014.39 1014.66 1014.88 1015.08
1016.01 1015.66 1015.36 1015.01 1015.24 1013.83 1012.70 1011.62 1011.60 1011.49 1010.78 1009.90 1009.19 1008.43 1008.46 1008.26 1008.05 1007.70 1007.91 1008.06 1008.64 1008.82 1009.30 1009.32 1009.20 1008.98 1008.96 1008.90 1009.24 1008.93 1009.07 1009.73 1010.64 1011.43 1011.85 1012.75 1012.04 1011.93 1012.59 1012.87 1013.17 1013.52 1013.82 1014.18 1014.45
1015.85 1015.47 1015.22 1015.03 1014.43 1013.31 1012.14 1011.69 1011.55 1011.35 1010.30 1009.38 1008.56 1008.22 1008.18 1007.99 1007.56 1007.43 1007.62 1007.77 1008.03 1008.46 1009.04 1008.49 1008.51 1008.73 1008.53 1008.19 1008.67 1008.56 1009.00 1009.68 1010.47 1011.12 1011.73 1012.30 1012.59 1011.56 1012.43 1012.02 1012.00 1012.53 1013.03 1013.50 1013.94
1015.56 1015.22 1015.04 1014.88 1014.50 1012.44 1011.96 1011.60 1011.49 1011.02 1009.97 1009.03 1008.46 1008.22 1008.21 1008.02 1007.63 1007.47 1007.59 1007.71 1007.99 1008.38 1008.64 1008.29 1008.54 1008.39 1007.82 1007.69 1008.22 1008.74 1009.18 1009.96 1010.57 1010.94 1011.14 1011.38 1012.04 1011.35 1011.48 1011.50 1011.56 1011.99 1012.55 1013.16 1013.87
1015.07 1014.82 1014.91 1014.23 1012.96 1012.30 1011.96 1011.47 1011.16 1010.47 1010.27 1009.45 1008.84 1008.61 1008.54 1008.38 1008.12 1007.78 1007.67 1007.91 1008.00 1008.33 1008.36 1008.23 1008.02 1007.70 1007.70 1007.85 1008.44 1008.86 1009.27 1009.54 1010.04 1010.57 1010.71 1011.82 1012.20 1010.91 1011.20 1011.60 1011.94 1012.13 1012.40 1013.00 1013.57
1014.59 1014.19 1014.11 1013.43 1012.79 1012.50 1011.76 1011.21 1010.80 1010.55 1009.98 1009.62 1009.31 1009.03 1008.83 1009.03 1008.69 1008.47 1008.13 1007.97 1008.05 1008.06 1008.02 1008.23 1007.92 1007.64 1007.32 1007.61 1007.93 1008.82 1009.38 1009.74 1009.76 1010.33 1010.81 1012.34 1011.70 1011.00 1011.45 1011.75 1012.00 1012.31 1012.47 1013.09 1013.66
1014.12 1013.84 1013.39 1012.55 1012.56 1012.90 1011.68 1011.04 1010.65 1010.39 1010.07 1009.75 1009.62 1009.45 1009.49 1009.61 1009.50 1009.07 1008.73 1008.23 1008.01 1008.18 1008.25 1008.48 1008.19 1007.65 1007.78 1007.91 1008.44 1009.24 1009.76 1010.34 1010.38 1011.30 1011.32 1011.40 1011.44 1011.05 1011.47 1011.61 1011.95 1012.35 1012.71 1013.02 1013.46
1013.99 1013.08 1012.40 1011.98 1012.03 1011.75 1011.23 1011.06 1010.75 1010.41 1010.02 1009.94 1009.84 1010.04 1009.92 1009.99 1009.77 1009.61 1009.20 1008.76 1008.52 1008.46 1008.50 1008.90 1008.72 1008.27 1008.19 1008.30 1009.07 1009.38 1010.22 1010.70 1010.97 1010.90 1010.84 1011.28 1011.50 1011.14 1011.07 1011.09 1011.75 1012.19 1012.51 1013.09 1013.73
1013.69 1012.64 1012.10 1011.86 1011.64 1011.15 1011.05 1010.89 1010.55 1010.06 1010.09 1010.07 1010.01 1010.25 1010.42 1010.45 1010.49 1009.93 1009.69 1009.25 1009.21 1009.35 1009.02 1009.09 1009.44 1009.14 1008.89 1008.89 1009.25 1009.84 1010.25 1011.15 1011.65 1011.74 1011.41 1011.43 1011.42 1011.48 1011.58 1011.90 1012.02 1012.23 1012.77 1013.49 1014.08
1013.55 1012.53 1011.93 1011.73 1011.50 1011.91 1011.19 1010.89 1010.53 1009.88 1009.99 1010.01 1010.27 1010.48 1010.73 1010.80 1010.67 1009.89 1010.14 1009.91 1009.77 1009.93 1009.77 1010.04 1009.98 1009.57 1009.33 1009.67 1009.95 1010.09 1010.61 1011.16 1011.47 1012.09 1012.42 1012.33 1011.85 1012.18 1012.38 1012.57 1012.73 1012.56 1012.91 1013.51 1014.44
1013.84 1012.71 1011.84 1011.38 1011.56 1011.59 1011.36 1010.78 1010.31 1009.91 1009.94 1010.03 1010.30 1010.58 1010.91 1011.06 1011.19 1010.76 1010.46 1010.31 1010.30 1010.21 1010.39 1010.34 1010.62 1010.30 1010.03 1010.44 1010.31 1010.50 1010.98 1011.58 1012.09 1012.33 1012.04 1012.08 1011.95 1012.52 1012.63 1012.72 1012.97 1013.07 1013.36 1014.08 1015.17
1014.10 1012.78 1012.04 1011.83 1012.12 1011.60 1011.44 1010.88 1010.31 1009.90 1009.98 1010.17 1010.45 1010.73 1011.10 1011.12 1011.14 1010.87 1010.69 1010.45 1010.52 1010.72 1010.85 1010.92 1011.23 1010.95 1010.62 1010.82 1011.19 1011.18 1011.29 1011.60 1011.97 1012.22 1012.38 1012.54 1012.79 1012.74 1013.03 1013.22 1013.45 1013.98 1014.60 1015.28 1015.82
1014.06 1012.98 1012.41 1012.18 1012.12 1011.95 1011.93 1011.52 1010.66 1010.16 1010.19 1010.30 1010.53 1010.53 1010.73 1010.94 1010.93 1010.70 1010.74 1010.69 1010.85 1010.97 1011.34 1011.47 1011.60 1011.65 1011.26 1011.44 1011.59 1011.79 1011.87 1012.04 1012.27 1012.82 1012.95 1013.26 1013.45 1014.00 1014.32 1014.35 1014.47 1015.00 1015.41 1015.90 1016.63
1014.27 1013.21 1012.74 1012.50 1012.38 1012.17 1012.32 1011.71 1011.22 1010.76 1010.59 1010.21 1010.26 1010.30 1010.57 1010.48 1010.19 1010.27 1010.44 1010.15 1011.10 1011.40 1011.44 1012.04 1012.10 1011.82 1011.55 1011.62 1011.67 1011.98 1012.38 1012.67 1012.80 1013.20 1013.56 1013.99 1014.20 1015.11 1015.21 1015.03 1015.19 1015.46 1015.78 1016.22 1016.40
1014.36 1013.66 1013.04 1013.02 1012.66 1012.48 1012.28 1012.03 1011.74 1011.72 1010.86 1010.59 1010.42 1010.26 1010.31 1010.29 1010.27 1010.38 1010.73 1010.51 1010.78 1011.25 1011.76 1012.11 1012.05 1011.97 1011.79 1012.08 1012.08 1012.41 1012.83 1013.08 1013.37 1014.00 1014.35 1014.47 1015.43 1015.65 1015.56 1015.75 1016.03 1016.20 1016.41 1016.60 1016.98
Thickness
5748 5750 5752 5755 5757 5758 5760 5761 5762 5764 5765 5766 5767 5768 5768 5770 5773 5775 5778 5798 5797 5795 5793 5787 5787 5785 5784 5779 5781 5777 5754 5744 5746 5745 5747 5755 5748 5748 5750 5742 5740 5739 5738 5738 5732
5747 5749 5750 5753 5755 5756 5758 5759 5761 5763 5765 5766 5767 5768 5768 5769 5774 5776 5801 5802 5799 5796 5789 5784 5778 5781 5774 5774 5773 5765 5751 5753 5764 5762 5757 5757 5755 5748 5743 5736 5734 5732 5734 5735 5730
5746 5747 5748 5750 5752 5753 5755 5757 5760 5762 5764 5766 5766 5766 5767 5769 5773 5788 5806 5802 5798 5798 5794 5790 5788 5783 5772 5774 5767 5761 5753 5758 5762 5764 5763 5758 5752 5754 5745 5735 5743 5739 5732 5730 5726
5744 5746 5747 5748 5750 5751 5753 5755 5757 5760 5762 5764 5765 5765 5766 5770 5757 5797 5805 5802 5796 5796 5792 5785 5781 5773 5769 5765 5769 5755 5759 5758 5759 5764 5760 5753 5757 5747 5748 5748 5744 5744 5736 5730 5724
5744 5745 5747 5748 5749 5750 5752 5754 5755 5757 5760 5763 5764 5765 5767 5769 5778 5801 5803 5797 5791 5791 5785 5779 5775 5772 5766 5767 5766 5761 5758 5759 5757 5760 5761 5758 5751 5749 5745 5742 5741 5740 5733 5728 5723
5743 5745 5747 5749 5750 5750 5751 5753 5755 5756 5758 5761 5764 5764 5769 5765 5797 5799 5800 5795 5790 5789 5784 5784 5780 5780 5768 5765 5763 5760 5759 5758 5758 5758 5757 5750 5743 5741 5743 5739 5735 5733 5732 5726 5722
5743 5745 5747 5749 5750 5751 5752 5753 5755 5756 5758 5761 5763 5766 5767 5776 5796 5795 5796 5793 5792 5792 5782 5788 5789 5778 5770 5758 5763 5758 5752 5760 5757 5756 5753 5754 5739 5742 5747 5737 5730 5729 5727 5723 5720
5743 5745 5746 5748 5750 5752 5753 5754 5755 5758 5760 5762 5763 5766 5767 5791 5792 5791 5795 5791 5791 5793 5792 5794 5792 5776 5767 5764 5759 5752 5749 5743 5754 5758 5755 5754 5750 5761 5748 5736 5729 5728 5724 5717 5712
5742 5744 5745 5747 5749 5752 5754 5756 5759 5761 5762 5762 5764 5767 5767 5785 5782 5793 5795 5788 5786 5788 5790 5791 5785 5767 5763 5752 5745 5744 5745 5740 5748 5760 5755 5750 5753 5749 5740 5734 5730 5725 5721 5714 5711
5742 5743 5745 5747 5749 5752 5755 5757 5758 5760 5760 5762 5766 5760 5775 5775 5789 5791 5793 5791 5783 5779 5774 5773 5767 5756 5749 5749 5734 5742 5739 5739 5741 5750 5745 5743 5749 5740 5735 5729 5726 5721 5717 5710 5707
5742 5743 5745 5747 5749 5750 5755 5759 5757 5756 5761 5768 5769 5769 5778 5790 5795 5787 5794 5787 5785 5775 5761 5763 5756 5751 5765 5760 5764 5753 5743 5741 5751 5754 5744 5745 5745 5747 5734 5727 5722 5717 5712 5706 5704
5741 5743 5745 5747 5748 5749 5748 5759 5765 5767 5758 5771 5769 5772 5782 5789 5773 5782 5792 5773 5768 5758 5757 5749 5748 5769 5765 5764 5753 5750 5742 5745 5745 5745 5742 5737 5742 5745 5734 5727 5723 5717 5711 5707 5704
5741 5743 5745 5747 5748 5749 5756 5765 5772 5774 5754 5764 5770 5770 5777 5783 5773 5776 5785 5777 5766 5755 5754 5748 5765 5768 5763 5761 5752 5754 5744 5748 5745 5736 5733 5727 5734 5734 5730 5727 5723 5718 5713 5708 5703
5740 5743 5745 5748 5749 5756 5761 5770 5770 5770 5742 5752 5762 5773 5778 5780 5766 5791 5792 5780 5764 5757 5755 5754 5767 5762 5760 5758 5755 5745 5765 5757 5741 5732 5726 5721 5707 5732 5723 5720 5719 5715 5711 5706 5703
5740 5743 5744 5745 5753 5758 5766 5767 5769 5765 5707 5758 5762 5787 5778 5769 5778 5777 5792 5778 5760 5759 5757 5755 5761 5755 5753 5762 5764 5755 5763 5752 5739 5728 5720 5714 5700 5733 5712 5717 5719 5716 5711 5706 5701
5740 5742 5743 5745 5746 5762 5764 5766 5764 5733 5705 5745 5762 5758 5756 5764 5769 5776 5774 5782 5777 5758 5757 5762 5769 5765 5767 5775 5768 5764 5753 5739 5730 5725 5709 5722 5706 5717 5717 5719 5718 5715 5709 5702 5694
5741 5744 5743 5746 5760 5760 5762 5760 5730 5713 5740 5737 5745 5753 5749 5747 5754 5761 5760 5752 5748 5735 5738 5752 5759 5770 5773 5759 5760 5753 5741 5720 5711 5708 5707 5703 5694 5717 5718 5715 5709 5705 5703 5698 5691
5743 5747 5747 5751 5755 5757 5760 5745 5707 5722 5729 5747 5744 5747 5740 5744 5748 5749 5749 5747 5754 5755 5747 5732 5729 5759 5775 5764 5755 5741 5739 5719 5689 5698 5711 5692 5690 5712 5713 5710 5706 5702 5700 5691 5682
5744 5747 5750 5756 5755 5752 5751 5721 5720 5725 5738 5737 5739 5732 5733 5739 5738 5742 5741 5746 5755 5755 5741 5727 5731 5766 5765 5764 5758 5734 5725 5727 5708 5689 5689 5694 5701 5714 5704 5702 5698 5692 5687 5683 5678
5744 5751 5754 5756 5756 5755 5742 5718 5726 5735 5741 5739 5724 5729 5723 5729 5731 5731 5732 5746 5746 5756 5758 5740 5726 5750 5755 5759 5746 5738 5732 5709 5703 5681 5677 5683 5681 5688 5702 5701 5694 5686 5682 5677 5670
5745 5749 5753 5754 5756 5749 5728 5725 5730 5742 5743 5734 5729 5724 5724 5720 5718 5719 5724 5741 5745 5744 5752 5745 5731 5733 5742 5734 5727 5725 5718 5704 5697 5689 5678 5669 5678 5697 5692 5688 5686 5685 5678 5669 5660
5740 5738 5751 5753 5739 5720 5727 5728 5735 5742 5744 5740 5735 5729 5722 5715 5709 5718 5713 5725 5741 5739 5734 5732 5724 5717 5725 5731 5730 5724 5711 5703 5689 5679 5671 5667 5676 5685 5683 5680 5675 5676 5673 5666 5654
5734 5736 5748 5750 5725 5724 5725 5730 5736 5737 5736 5735 5729 5730 5724 5712 5703 5712 5717 5732 5733 5733 5728 5729 5710 5702 5708 5712 5718 5708 5706 5695 5684 5676 5677 5670 5673 5682 5681 5677 5672 5668 5664 5654 5640
5729 5729 5736 5735 5724 5726 5721 5724 5726 5738 5733 5733 5727 5727 5715 5710 5712 5709 5711 5723 5730 5727 5717 5722 5704 5703 5694 5695 5699 5693 5697 5695 5686 5674 5670 5668 5664 5674 5672 5667 5666 5656 5648 5636 5626
5726 5725 5727 5724 5722 5718 5714 5715 5720 5723 5731 5729 5719 5722 5716 5705 5706 5706 5709 5717 5722 5717 5716 5712 5696 5696 5700 5695 5694 5687 5684 5684 5678 5671 5663 5663 5659 5658 5654 5651 5650 5641 5634 5623 5609
5719 5722 5723 5716 5716 5716 5705 5713 5713 5719 5720 5719 5716 5719 5715 5710 5717 5710 5712 5717 5707 5712 5710 5702 5690 5693 5690 5693 5690 5680 5679 5677 5675 5669 5665 5659 5655 5649 5646 5647 5640 5633 5624 5608 5604
5716 5719 5720 5701 5708 5710 5710 5710 5710 5707 5718 5718 5716 5714 5709 5714 5718 5718 5714 5716 5713 5709 5701 5697 5694 5688 5678 5682 5680 5668 5670 5669 5666 5661 5654 5648 5642 5643 5641 5634 5627 5619 5612 5603 5591